Tracking 25612 objects as of 20-May-2022
HD Live streaming from Space Station
objects crossing your sky now

COSMOS 2251 DEB

Track COSMOS 2251 DEB now!
10-day predictions


NORAD ID: 34791
Int'l Code: 1993-036AAU
Perigee: 568.9 km
Apogee: 629.5 km
Inclination: 74.0 °
Period: 96.5 minutes
Semi major axis: 6970 km
RCS: 0.0091 m2 (small)
Launch date: June 16, 1993
Source: Commonwealth of Independent States (former USSR) (CIS)
Launch site: PLESETSK MISSILE AND SPACE COMPLEX (PKMTR)

Note: This is SATELLITE DEBRIS
aabbcc
Your satellite tracking list
Your tracking list is empty




NASA's NSSDC Master Catalog

Two Line Element Set (TLE):
1 34791U 93036AAU 22139.48241395  .00029195  00000-0  28283-2 0  9999
2 34791  74.0185 301.3730 0043493  50.2958 310.2045 14.91876165712665
Source of the keplerian elements: AFSPC